Nome, AK

4:45 AM AKDT on September 22, 2017 (GMT -0800)
Nome

Weather History for PAOM - February, 2013

Change the Weather History Date:

Sunday, February 3, 2013

  Actual Average Record
Temperature  
Mean Temperature 20 °F 6 °F  
Max Temperature 22 °F 14 °F 39 °F (1982)
Min Temperature 17 °F -2 °F -37 °F (1947)
Degree Days  
Heating Degree Days 45 59  
Month to date heating degree days 166 178  
Since 1 July heating degree days 7884 7846  
Cooling Degree Days 0 0  
Month to date cooling degree days 0 0  
Year to date cooling degree days 0 0  
Moisture  
Dew Point 17 °F    
Average Humidity 0    
Maximum Humidity 0    
Minimum Humidity 0    
Precipitation  
Precipitation 0.02 in 0.03 in 0.60 in (1931)
Month to date precipitation 0.04 0.10  
Year to date precipitation 1.20 1.04  
Snow  
Snow 0.40 in 0.40 in 8.00 in (1931)
Month to date snowfall 0.6 1.3  
Since 1 July snowfall 34.4 45.8  
Snow Depth 26.00 in    
Sea Level Pressure  
Sea Level Pressure 29.46 in    
Wind  
Wind Speed 3 mph (NNW)    
Max Wind Speed 12 mph    
Max Gust Speed 13 mph    
Visibility 9 miles    
Events Snow    
T = Trace of Precipitation, MM = Missing Value Source: NWS Daily Summary

Daily Weather History Graph

Daily Weather History Graph

Search for Another Location

Airport or City:

Trip Planner

Search our weather history database for the weather conditions in past years. The results will help you decide how hot, cold, wet, or windy it might be!

Date:

Astronomy

Feb. 03, 2013 Rise Set
Actual Time 10:36 AM AKST 5:55 PM AKST
Civil Twilight 9:40 AM AKST 6:52 PM AKST
Nautical Twilight 8:41 AM AKST 7:51 PM AKST
Astronomical Twilight 7:44 AM AKST 8:47 PM AKST
Moon 4:34 AM AKST (2/3) 11:20 AM AKST (2/3)
Length of Visible Light 9h 12m
Length of Day
7h 18m
Waning Gibbous, 47% of the Moon is Illuminated
Feb 3
Waning Gibbous
Feb 9
New
Feb 17
First Quarter
Feb 25
Full
Mar 4
Last Quarter

Hourly Weather History & Observations

Time (AKST) Temp. Windchill Dew Point Humidity Pressure Visibility Wind Dir Wind Speed Gust Speed Precip Events Conditions
12:18 AM 17.6 °F - 14.0 °F 86% 29.47 in 3.0 mi Calm Calm - 0.00 in Snow Light Snow
12:27 AM 17.6 °F - 14.0 °F 86% 29.46 in 4.0 mi Calm Calm - 0.00 in Snow Light Snow
12:53 AM 18.0 °F 9.8 °F 12.9 °F 81% 29.47 in 5.0 mi NNW 5.8 mph - 0.00 in Snow Light Snow
1:53 AM 18.0 °F 8.7 °F 14.0 °F 84% 29.48 in 10.0 mi NNW 6.9 mph - 0.01 in   Overcast
3:53 AM 19.0 °F 7.5 °F 15.1 °F 85% 29.47 in 10.0 mi North 10.4 mph - 0.00 in   Overcast
4:53 AM 19.9 °F 13.4 °F 17.1 °F 89% 29.44 in 4.0 mi NNW 4.6 mph - 0.00 in Snow Light Snow
5:53 AM 19.0 °F - 17.1 °F 92% 29.44 in 6.0 mi Calm Calm - 0.00 in Snow Light Snow
6:53 AM 19.0 °F - 17.1 °F 92% 29.44 in 3.0 mi Calm Calm - 0.01 in Snow Light Snow
7:53 AM 18.0 °F - 16.0 °F 92% 29.44 in 8.0 mi Calm Calm - 0.00 in   Overcast
8:41 AM 19.4 °F 10.4 °F 15.8 °F 86% 29.45 in 10.0 mi NNW 6.9 mph - N/A   Overcast
8:53 AM 19.0 °F 11.1 °F 18.0 °F 96% 29.44 in 10.0 mi North 5.8 mph - N/A   Overcast
9:53 AM 19.9 °F 14.9 °F 17.1 °F 89% 29.43 in 10.0 mi North 3.5 mph - N/A   Overcast
10:00 AM 19.4 °F 11.5 °F 17.6 °F 93% 29.43 in 10.0 mi North 5.8 mph - N/A   Overcast
10:53 AM 21.0 °F - 17.1 °F 85% 29.43 in 10.0 mi Calm Calm - N/A   Overcast
11:53 AM 21.9 °F - 18.0 °F 85% 29.44 in 10.0 mi Calm Calm - N/A   Overcast
12:53 PM 21.0 °F 14.6 °F 18.0 °F 88% 29.44 in 10.0 mi WNW 4.6 mph - N/A   Overcast
1:19 PM 19.4 °F 11.5 °F 17.6 °F 93% 29.44 in 10.0 mi West 5.8 mph - N/A   Overcast
1:53 PM 21.0 °F 14.6 °F 18.0 °F 88% 29.45 in 10.0 mi WNW 4.6 mph - N/A   Overcast
2:53 PM 21.0 °F 14.6 °F 18.0 °F 88% 29.45 in 10.0 mi West 4.6 mph - N/A   Overcast
3:53 PM 21.0 °F - 19.0 °F 92% 29.45 in 10.0 mi Calm Calm - N/A   Mostly Cloudy
4:53 PM 21.0 °F - 18.0 °F 88% 29.45 in 10.0 mi Calm Calm - N/A   Mostly Cloudy
5:53 PM 19.0 °F - 16.0 °F 88% 29.45 in 10.0 mi Calm Calm - N/A   Mostly Cloudy
6:53 PM 19.9 °F - 17.1 °F 89% 29.46 in 10.0 mi Calm Calm - N/A   Overcast
7:13 PM 19.4 °F 12.8 °F 17.6 °F 93% 29.46 in 10.0 mi East 4.6 mph - N/A   Overcast
7:53 PM 19.9 °F 12.1 °F 16.0 °F 85% 29.47 in 10.0 mi ESE 5.8 mph - N/A   Overcast
8:14 PM 19.4 °F - 15.8 °F 86% 29.47 in 10.0 mi Calm Calm - N/A   Overcast
8:53 PM 19.9 °F 14.9 °F 17.1 °F 89% 29.47 in 10.0 mi East 3.5 mph - N/A   Overcast
9:45 PM 21.2 °F - 17.6 °F 86% 29.49 in 10.0 mi Calm Calm - N/A   Overcast
9:53 PM 19.9 °F - 17.1 °F 89% 29.49 in 10.0 mi Calm Calm - N/A   Overcast
10:36 PM 21.2 °F - 17.6 °F 86% 29.50 in 10.0 mi Calm Calm - N/A   Overcast
10:53 PM 19.9 °F - 17.1 °F 89% 29.50 in 10.0 mi Calm Calm - N/A   Overcast
11:01 PM 19.4 °F - 17.6 °F 93% 29.50 in 10.0 mi Calm Calm - N/A   Overcast
11:53 PM 19.9 °F - 15.1 °F 81% 29.52 in 10.0 mi Calm Calm - N/A   Overcast